Regional Weather Roundup
Issued by NWS State College, PA

Home | Current Version | Previous Version | Text Only | Print | Product List | Glossary On
Versions: 1 2 3 4 5 6 7 8 9 10 11 12 13 14 15 16 17 18 19 20 21 22 23 24 25 26 27 28 29 30 31 32 33 34 35 36 37 38 39 40 41 42 43 44 45 46 47 48 49 50
000
ASUS41 KCTP 301510
RWRCTP

REGIONAL WEATHER ROUNDUP
NATIONAL WEATHER SERVICE STATE COLLEGE PA
1100 AM EDT SAT AUG 30 2014

Note: "fair" indicates few or no clouds below 12,000 feet with no
significant weather and/or obstructions to visibility.

* = STATION THAT DOES NOT REPORT PRECIPITATION /E.G. RAIN...SNOW...ETC/
    THUNDER OR FOG.

PAZ002>004-007>009-013>016-020>023-029>032-301600-
WESTERN PENNSYLVANIA

CITY           SKY/WX    TMP DP  RH WIND       PRES   REMARKS
ERIE           SUNNY     81  64  56 S14       30.05F
MEADVILLE      SUNNY     75  65  70 VRB6      30.11S
FRANKLIN*      MOSUNNY   73  64  73 S10       30.14S
NEW CASTLE     FAIR      80  70  71 CALM      30.12S
BEAVER COUNTY  PTSUNNY   77  68  73 S9        30.13S
BUTLER*        MOSUNNY   75  66  73 S8        30.16S
PITTSBURGH INT PTSUNNY   76  68  76 SW8       30.13S
PITTSBURGH     CLOUDY    75  65  70 S7        30.14S
INDIANA*       SUNNY     79  66  65 SW9       30.20S
LATROBE        MOSUNNY   81  70  69 SW12      30.16S
WASHINGTON CO* CLOUDY    72  66  83 S3        30.15S
$$

PAZ004>006-010>012-017>019-024>028-033>037-041-042-045-046-049>053-301600-
CENTRAL PENNSYLVANIA

CITY           SKY/WX    TMP DP  RH WIND       PRES   REMARKS
BRADFORD       MOSUNNY   72  62  71 S9        30.18S
DUBOIS         PTSUNNY   72  64  76 S7        30.17S
CLEARFIELD     CLOUDY    70  60  70 N3        30.19F
JOHNSTOWN      SUNNY     74  63  68 SW7       30.22S
ALTOONA        MOSUNNY   73  62  68 VRB6      30.22S
STATE COLLEGE  PTSUNNY   70  61  73 S6        30.21F
WILLIAMSPORT   CLOUDY    68  60  75 E5        30.21S
SELINSGROVE    CLOUDY    70  62  76 VRB7      30.22S
FT INDIANTOWN  CLOUDY    67  65  94 NE3       30.25S
CAPITAL CITY   CLOUDY    70  62  76 E7        30.23F
HARRISBURG     CLOUDY    73  63  70 SE5       30.22F
YORK           CLOUDY    73  63  70 S6        30.23S
$$

PAZ038>040-043-044-047-048-054-055-060>062-067>071-301600-
EASTERN PENNSYLVANIA

CITY           SKY/WX    TMP DP  RH WIND       PRES   REMARKS
SCRANTON       CLOUDY    71  58  63 SW12      30.23F
MOUNT POCONO   CLOUDY    64  56  75 SW13G20   30.28S
ALLENTOWN      CLOUDY    70  59  68 S3        30.26S
QUAKERTOWN*    CLOUDY    70  63  78 MISG      30.27S
READING        CLOUDY    71  62  73 SE3       30.24F
LANCASTER      CLOUDY    71  59  65 SE9       30.24F
COATESVILLE    PTSUNNY   68  66  94 SE6       30.27S
POTTSTOWN      CLOUDY    70  62  76 CALM      30.27S
BLUE BELL      CLOUDY    77  63  61 S7        30.25S
DOYLESTOWN     CLOUDY    70  61  73 S7        30.25F
WILLOW GROVE   NOT AVBL
NORTH PHILA    CLOUDY    76  60  57 SE8       30.27S
PHILADELPHIA   CLOUDY    75  62  64 S10       30.25S
$$


USA.gov is the U.S. government's official web portal to all federal, state and local government web resources and services.